Погода в Элисте

Погода в Элисте : погода сейчас, прогноз погоды и архив. Всё, что Вы хотите узнать о погоде в Элисте!

Поиск расширенной информации на нашем сайте:

Другие новости

Новости СМИ2

Главная страница сайта

Новости сайта

03.07.2017

Напоминаем, что на нашем специализированном сайте Метеоцентр.Азия вы можете получить высокодетализированные автоматические прогнозы погоды по пунктам России, СНГ и мира в авиационном формате (включающие направление и скорость ветра, видимость, явления погоды, количество и форму облачности, нижнюю и верхнюю границу облачности).

Рекомендуем: Батарейка philips LR14 Батарейки LR14 BL, LR20 BL.

Погода в Элисте - сегодня

Время (UTC), дата Ветер
(°,м/с) 
Видим.   Явления Облачность Т
(°С)
Тd
(°С)
f(%) Тe
(°С)
Pmin
(гПа)
dP
(гПа)
Po
(мм)
O2
(г/м3)
Тmin Tmax R s Состояние
почвы
15 17.10.17 290 (З) 4{13}  10 км    9/0 средняя 
[Ac As]
+10.2 +5.1 71 +9  1016.4  0.2  745  288    +11.2       
18 17.10.17 290 (З) 10 км    10/0 средняя 
[Ac und]
+11.1 +6.6 74 +10  1016.7  0.4  745  287           
21 17.10.17 310 (СЗ) 10 км    10/0 средняя 
[Ac und]
+9.9 +7.4 84 +9  1017.9  1.1  746  289           
00 18.10.17 310 (СЗ) 6{12}  10 км  {ливн. осадки}  10/8 600 м средняя 
[Sc diur, vesp|Ac und]
+8.6 +6.2 85 +7  1019.5  1.4  747  291           
03 18.10.17 310 (СЗ) 10 км    10/6 600 м средняя 
[Sc diur, vesp|Ac und]
+8.6 +6.6 87 +7  1021.6  748  291  +8.5        влажная 
06 18.10.17 330 (СЗ) 10 км    ясно 
+9.5 +6.9 84 +8  1023.8  2.3  750  291           
09 18.10.17 320 (СЗ) 20000 м    8/3 1000 м средняя 
[Cu med, cong|Ac trans]
+12.4 +6.5 67 +12  1023.6  750  288           
12 18.10.17 300 (СЗ) 20000 м    8/3 1000 м средняя 
[Cu med, cong|Ac trans]
+13.2 +5.9 61 +14  1023  -0.5  750  287           
15 18.10.17 240 (ЮЗ) 10 км    10/0 средняя 
[Ac und]
+9.8 +5.9 77 +10  1023.5  0.2  750  291    +13.3       
18 18.10.17 250 (З) 10 км    3/0 средняя 
[Ac trans]
+8.2 +4.8 79 +8  1023.3  -0.3  750  292           
21 18.10.17 240 (ЮЗ) 10 км    3/0 средняя 
[Ac trans]
+8.2 +4.6 78 +8  1022.7  -0.6  749  292           
00 19.10.17 240 (ЮЗ) 4000 м  дымка  10/10 100 м 
[St]
+8.1 +6.2 88 +7  1022.1  -0.5  749  292           
03 19.10.17 230 (ЮЗ) 0500 м  туман  ?/?  
+9.4 +7.9 90 +9  1021.8  -0.2  749  290  +7        влажная 
06 19.10.17 260 (З) 0200 м  туман  н/о 
+11 +9.5 90 +11  1022  -0.2  749  288           
09 19.10.17 250 (З) 4000 м  дымка{туман}  6/6 300 м 
[St]
+13.1 +11.6 91 +16  1021.1  -0.6  748  285           
12 19.10.17 250 (З) 10 км  {туман}  4/4 300 м 
[St]
+15.7 +10.3 70 +17  1019.5  -1.4  747  283           
15 19.10.17 270 (З) 10 км    5/0 средняя 
[Ac trans]
+12.4 +8.4 77 +12  1019.7  0.1  747  287    +15.8       
18 19.10.17 260 (З) 10 км    6/0 средняя 
[Ac trans]
+10.5 +7.6 82 +10  1019.2  -0.6  747  288           
21 19.10.17 280 (З) 10 км    4/0 средняя 
[Ac trans]
+11.1 +8.1 82 +10  1018.7  -0.5  746  288           
00 20.10.17 250 (З) 10 км    ясно 
+9 +7.1 88 +8  1018.3  -0.5  746  290           
03 20.10.17 260 (З) 4000 м  дымка  8/6 50 м 
[St]
+9.4 +7.8 90 +9  1018.4  0.1  746  289  +8.4         
06 20.10.17 270 (З) 4000 м  дымка{туман}  8/3 600 м средняя 
[Sc|Ac trans]
+11.2 +9.7 90 +12  1018.6  0.3  746  287           
09 20.10.17 290 (З) 10 км    9/9 600 м 
[Sc]
+13.2 +8.4 73 +13  1018.2  -0.2  746  285           
12 20.10.17 330 (СЗ) 4000 м  мгла{туман}  10/10 600 м 
[Sc]
+14 +9.3 73 +14  1017.8  -0.3  746  284           
15 20.10.17 340 (С) 4000 м  мгла{туман}  10/10 600 м 
[Sc]
+13.1 +10 81 +15  1018.5  0.6  746  285    +14.1       
Время (UTC), дата Ветер
(°,м/с) 
Видим.   Явления Облачность Т
(°С)
Тd
(°С)
f(%) Тe
(°С)
Pmin
(гПа)
dP
(гПа)
Po
(мм)
O2
(г/м3)
Тmin Tmax R s Состояние
почвы

Для получения пояснительной информации подведите курсор к названию столбца.

ПОГОДА в Элисте - архив

Всё, что Вы хотите узнать о погоде в Элисте - удобно и подробно!

Выберите нужную дату (начиная с 1 января 2015* года) и нажмите кнопку "Найти".
Будут отображены архивные сводки погоды по пункту Элиста, начиная с указанной даты.


Отображать данные в формате CSV (для использования в таблицах Excel)


Внимание! Наш архив погоды предназначен исключительно для личного некоммерческого использования в познавательных целях. Если Вам необходимы официальные справки о состоянии погоды (для производственных, юридических, коммерческих и т.п. целей), обращайтесь в органы Росгидромета.

*Примечание: данная дата относится к архиву по метеостанциям СССР (Россия, СНГ, Балтия).
Архив по метеостанциям Зарубежной Европы и Азии (кроме Китая) хранится 10 дней, по другим регионам земного шара (Китай, Африка, Америка, Австралия, Океания) - 1 день.

Элиста - район местоположения метеостанции


Название, широта, долгота, высота метеостанции:
Элиста 46.4°ш. 44.3°д. 155 м над ур. моря [Российская Федерация]

Дополнительная информация

В oтличие oт бoльшинства пoгoдных сайтoв мы публикуем пoдрoбную метеoинфoрмацию в детальнoм прoфессиoнальнoм фoрмате.

Характеристики температуры и влажнoсти вoздуха измеряются на высoте 2 м в тени вдали oт зданий и деревьев.
Скoрoсть ветра измеряется на высoте 10 м (на урoвне рoста челoвека скoрoсть ветра ниже в 1.5-2 раза). Если метеoстанция нахoдится в гoрoде или в лесу, тo скoрoсть ветра занижена на 2-4 м/с пo сравнению с oткрытым местoм. Скoрoсть ветра над акватoриями крупных рек и oзёр, а также на вершинах хoлмoв на 2-5 м/с выше, чем в oбычных услoвиях.
Атмoсфернoе давление в разных тoчках местнoсти мoжет значительнo oтличаться oт давления на метеoстанции, в зависимoсти oт услoвий рельефа (при пoдъёме на 10 м давление пoнижается примернo на 1 мм рт.ст.).